Location: Powder Track
(41.8531°N, 72.3584°W)
Time: 09:30:24
(UTC+00:00)

Transit 4A - Pass Details

Date: 05 August 2021
Orbit: 871 x 974 km, 66.8° (Epoch: 20 September)

Event Time Altitude Azimuth Distance (km) Brightness Sun altitude
Rises 13:17:54 0° 324° (NW) 3,483 10.5 37.5°
Reaches altitude 10° 13:20:28 10° 318° (NW) 2,550 9.9 37.9°
Maximum altitude 13:26:02 46° 247° (WSW) 1,197 8.6 38.9°
Drops below altitude 10° 13:31:44 10° 176° (S) 2,595 10.5 40.0°
Sets 13:34:21 0° 171° (S) 3,549 11.2 40.4°
